Search for airport 
image banner adimage banner ad
image banner ad

SIXD - Fazenda da Paz Airport

Located in Santana Do Livramento, Brazil

ICAO - SIXD, IATA -

Data provided by Airmate  

General information

Coordinates: S30°50'40" W55°34'5"
Elevation is 2267 feet MSL.
Magnetic variation is -13° East
View others Airports in Rio Grande do Sul

Operational data

Open for public use
Current time UTC:
Current local time:
TAF: TAF SURV 280530Z 2806/2906 VRB03KT CAVOK TX32/2818Z TN18/2809Z PROB40 TEMPO 2806/2810 5000 BR BKN008 BECMG 2610/2812 11012KT 9999 SCT030 BKN200
View NOTAMs / SUP AIP / TFR affecting this airport [VIEW]
Communications frequencies: [VIEW]

Runways:

RWY identifierQFULength (ft)Width (ft)SurfaceLDA (ft)
11252675GRASS
29252675GRASS

Airport contact information

Address: Santana Do Livramento Brazil

Satellite view of SIXD